YMML

Melbourne Airport

Airport
ICAO code
YMML
IATA Code
MEL
Summary
ICAO Region
APAC
ICAO Territory
Location

Tullamarine, Victoria

Serving
Melbourne
Elevation
434 ft
Coordinates
37° 40' 11" S , 144° 50' 55" E
KCC
Airport BS
Bird Strike
Airport WX
Cumulonimbus
Metar
Observation
YMML 082230Z 30002KT 9999 FEW014 19/14 Q1011
Station
Melbourne Airport
Date/Time
2023-02-08 22:30:00
Wind direction
300°
Wind speed
02 kts
Lowest cloud amount
few clouds
Temperature
19°C
Dew point
14°C
Humidity
72%
QNH
1011 hPa
Weather condition
n/a

Description

Melbourne Airport, also known as Tullamarine Airport, is the primary airport serving the city of Melbourne and the second busiest in Australia.

Climatology

Mild temperate oceanic climate (Köppen climate classification Cfb). Melbourne is known for its changeable weather conditions caused by the city's location on the boundary of the very hot inland areas and the cold southern ocean. Cold fronts in the spring and summer months can be associated with severe weather.

SKYbrary Partners:

Safety knowledge contributed by: